Preview of NWS' New Version of Forecast
This preview is not operational and should not be used for support decisions.

Regional Weather Roundup (RWR)

Issued by National Weather Service (NWS)

                            
000
ASUS42 KTBW 181917
RWRFL 
FLORIDA REGIONAL WEATHER ROUNDUP
NATIONAL WEATHER SERVICE TAMPA BAY RUSKIN FL
200 PM EST MON FEB 18 2019

NOTE: "FAIR" INDICATES FEW OR NO CLOUDS BELOW 12,000 FEET WITH NO
SIGNIFICANT WEATHER AND/OR OBSTRUCTIONS TO VISIBILITY.

FLZ001>010-012>015-112-114-115-182000-
PANHANDLE FLORIDA
  
CITY           SKY/WX    TMP DP  RH WIND       PRES   REMARKS
PENSACOLA      CLOUDY    60  45  57 N13G22    30.15F                  
PENSACOLA NAS  CLOUDY    60  44  55 N20G28    30.13F                  
MILTON NAS     CLOUDY    54  45  71 VRB5      30.16                   
CRESTVIEW      CLOUDY    57  48  72 NE7       30.18F                  
DUKE FIELD     CLOUDY    57  44  61 N12G24    30.15F                  
VALPARAISO     CLOUDY    58  48  70 NE16      30.13F                  
MARY ESTHER    CLOUDY    59  46  63 NE17G28   30.12F                  
PANAMA CITY    CLOUDY    61  53  75 N13       30.13F                  
TYNDALL AFB    CLOUDY    66  58  75 N15       30.11F                  
APALACHICOLA   CLOUDY    68  59  73 NE13      30.10F                  

STATION/POSITION SKY/WX   TEMP    WIND        PRES    WAVE   SWELL
                          AIR SEA DIR/SP/G            HT/PER HT/PER
                          (F)     (DEG/KT/KT) (MB)    (FT/S) (FT/S)
30.1N   87.6W              59      30/ 21/ 25   N/A     4/ 8   2/ 8
29.2N   88.2W                      30/ 21/ 27 1019.6F   7/ 7
PANAMA CITY BEAC           61 62   20/ 12/ 16 1020.3F
TOWER C                    63      30/ 18/ 20 1018.9F

$$
FLZ011-016>038-118-127-128-134-139-239-182000-
NORTH FLORIDA
  
CITY           SKY/WX    TMP DP  RH WIND       PRES   REMARKS
MARIANNA       CLOUDY    60  51  72 N14       30.16F                  
TALLAHASSEE    CLOUDY    64  59  83 N12       30.13F                  
PERRY          CLOUDY    69  62  78 NE8       30.12F                  
LIVE OAK       PTSUNNY   73  61  64 N7        30.10F                  
CROSS CITY     CLOUDY    79  70  75 SW7       30.09F                  
LAKE CITY      PTSUNNY   73  64  73 N13       30.08F                  
GAINESVILLE    PTSUNNY   86  68  54 W15       30.10F                  
WILLISTON        N/A    N/A N/A N/A MISG        N/A                   
PALATKA        PTSUNNY   84  68  58 NW7       30.07F                  
MAYPORT NAS    PTSUNNY   66  61  84 N22G32    30.08R                  
JACKSONVILLE   FAIR      79  64  60 N9        30.07R                  
JAX NAS        PTSUNNY   86  67  52 W9        30.06F                  
JAX CECIL      MOSUNNY   88  68  51 W14       30.06F                  
FERNANDINA BEA FAIR      71  62  71 NE14G22   30.10S                  
ST AUGUSTINE   PTSUNNY   85  67  54 SW9       30.07F                  
PALM COAST     MOSUNNY   84  66  54 SW12G22   30.07F                  

STATION/POSITION SKY/WX   TEMP    WIND        PRES    WAVE   SWELL
                          AIR SEA DIR/SP/G            HT/PER HT/PER
                          (F)     (DEG/KT/KT) (MB)    (FT/S) (FT/S)
SHELL POINT      NOT AVBL
KEATON BEACH               66     300/  3/  4 1019.6F
CEDAR KEY                  67     200/ 14/ 15 1019.0F
FERNANDINA                    63   20/  8/ 17 1020.0F
30.7N   81.3W                 61                N/A     2/ 5
MAYPORT                       62   20/ 21/ 28 1018.9R
31.4N   80.9W              59 58  340/  8/ 10 1020.0F   2/ 5   2/ 5
ST AUGUSTINE               85 63  230/  8/ 12 1018.2F

$$
FLZ040-043>046-052-053-057-058-063-144-182000-
INTERIOR CENTRAL FLORIDA
  
CITY           SKY/WX    TMP DP  RH WIND       PRES   REMARKS
OCALA          PTSUNNY   87  68  52 SW9G18    30.08F                  
LEESBURG       PTSUNNY   82  70  66 S8        30.09F                  
SANFORD        CLOUDY    83  71  67 W8        30.09F                  
ORLANDO EXEC   PTSUNNY   84  69  60 S9        30.09F                  
ORLANDO INTL   FAIR      83  69  62 SW8       30.09F                  
KISSIMMEE      CLOUDY    84  71  65 VRB5      30.11F                  
WINTER HAVEN   FAIR      86  70  58 SW6       30.10F                  
LAKELAND       MOSUNNY   81  70  69 W7        30.11F                  
BARTOW         MOSUNNY   84  70  61 SW9       30.09F                  
SEBRING        FAIR      88  68  52 SW10      30.09F                  
OKEECHOBEE     PTSUNNY   84  70  61 S8        30.09F                  

$$
FLZ041-047-054-059-064-141-147-182000-
EAST CENTRAL FLORIDA
  
CITY           SKY/WX    TMP DP  RH WIND       PRES   REMARKS
ORMOND BEACH   MOSUNNY   82  72  69 SW12G17   30.08F                  
DAYTONA BEACH  FAIR      84  72  67 S8        30.08F                  
DELAND         FAIR      84  70  61 S12       30.08F                  
NEW SMYRNA BEA CLOUDY    82  72  69 W8        30.10F                  
JFK SPACE CTR  FAIR      85  73  66 W8        30.09F                  
TITUSVILLE     PTSUNNY   86  72  62 W6        30.10F                  
CAPE CANAVERAL FAIR      83  73  71 S5        30.08F                  
PATRICK AFB    FAIR      77  72  83 E7        30.09F                  
MELBOURNE      FAIR      88  69  53 SW9       30.08F                  
VERO BEACH     FAIR      88  70  55 S9        30.09F                  
FT PIERCE      FAIR      87  68  52 SW8       30.08F                  
STUART         MOSUNNY   88  66  48 S12       30.10F                  

STATION/POSITION SKY/WX   TEMP    WIND        PRES    WAVE   SWELL
                          AIR SEA DIR/SP/G            HT/PER HT/PER
                          (F)     (DEG/KT/KT) (MB)    (FT/S) (FT/S)
28.5N   80.2W              70     160/  4/  6 1019.7F   2/ 9   2/ 9
28.9N   78.5W              76 76  190/ 14/ 16 1020.3F   3/ 8   2/ 8
TRIDENT PIER               79 66  130/  4/  6 1020.2F
28.4N   80.5W                 67                N/A     2/ 9

$$
FLZ050-056-061-142-242-148-248-149-249-151-251-155-255-
160-260-182000-
WEST CENTRAL FLORIDA
  
CITY           SKY/WX    TMP DP  RH WIND       PRES   REMARKS
CRYSTAL RIVER  FAIR      82  72  69 SW12G18   30.09F                  
INVERNESS      CLOUDY    86  70  58 W6        30.08F                  
BROOKSVILLE    PTSUNNY   85  68  56 S9        30.09F                  
CLEARWATER AIR CLOUDY    79  72  78 S10       30.09F                  
ST PETE CLEARW FAIR      83  71  67 SW14      30.09F                  
TAMPA INTL     FAIR      81  73  76 S13       30.10F                  
TAMPA EXEC     FAIR      84  72  65 SW13      30.10F                  
PLANT CITY     PTSUNNY   86  70  58 SW8       30.11F                  
MACDILL AFB    FAIR      79  72  79 SW16      30.09F                  
PETER O KNIGHT FAIR      82  73  74 SW13      30.10F                  
ST PETERSBURG  FAIR      80  72  76 SW10      30.08F                  
SARASOTA       FAIR      82  73  74 S15       30.09F                  
VENICE         CLOUDY    81  73  78 S12       30.11F                  

STATION/POSITION SKY/WX   TEMP    WIND        PRES    WAVE   SWELL
                          AIR SEA DIR/SP/G            HT/PER HT/PER
                          (F)     (DEG/KT/KT) (MB)    (FT/S) (FT/S)
27.3N   84.2W                 72                N/A     4/ 7
CLEARWATER BEACH           73 68  190/ 11/ 13 1019.5F
MIDDLE TAMPA BAY           73     240/ 10/ 11 1019.6F
VENICE                     71 68  170/  8/  9   N/A

$$
FLZ066-069-070-075>078-162-262-165-265-182000-
SOUTHWEST FLORIDA AND KEYS
  
CITY           SKY/WX    TMP DP  RH WIND       PRES   REMARKS
PUNTA GORDA    FAIR      83  70  64 SW15      30.11F                  
FT MYERS       FAIR      84  69  60 SW12      30.09F                  
SOUTHWEST INTL FAIR      84  70  62 SW14      30.10F                  
NAPLES         FAIR      84  71  65 SW15      30.10F                  
MARCO ISLAND     N/A    N/A N/A N/A S12       30.11F                  
IMMOKALEE      FAIR      90  68  48 S6G17     30.07F                  
MARATHON         N/A    N/A N/A N/A MISG      30.09F                  
KEY WEST NAS   FAIR      85  74  69 SE12      30.08F                  
KEY WEST INTL  FAIR      83  75  77 SE9       30.09F                  

STATION/POSITION SKY/WX   TEMP    WIND        PRES    WAVE   SWELL
                          AIR SEA DIR/SP/G            HT/PER HT/PER
                          (F)     (DEG/KT/KT) (MB)    (FT/S) (FT/S)
NAPLES                     78 73  160/  7/  7 1019.6F
26.0N   85.6W              80 80  170/ 12/ 14 1017.5
DRY TORTUGAS               78     120/  8/  9 1018.5F
SAND KEY                   78                 1018.7F
SOMBRERO KEY               79                 1018.4F
LONG KEY                   79 79  140/  8/  9 1018.7F
MOLASSES REEF              79 78  170/ 11/ 12 1020.0

$$
FLZ067-068-071>074-168-172>174-182000-
SOUTHEAST FLORIDA 
  
CITY           SKY/WX    TMP DP  RH WIND       PRES   REMARKS
W PALM BEACH   PTSUNNY   83  72  69 S15       30.09F                  
BOCA RATON     MOSUNNY   86  73  66 S16       30.10                   
FT LAUDER-EXEC FAIR      85  75  72 SE12      30.09F                  
FT LAUDERDALE  FAIR      84  77  79 SE17      30.08F                  
POMPANO BEACH  FAIR      84  74  71 SE13      30.09F                  
PEMBROKE PINES FAIR      87  70  56 S10       30.10F                  
OPA LOCKA      FAIR      87  72  60 S14       30.10F                  
MIAMI          FAIR      85  75  72 SE13G18   30.10F                  
WEST KENDALL   PTSUNNY   87  72  60 SE12      30.09F                  
HOMESTEAD      CLOUDY    85  73  67 SE7       30.09F                  

STATION/POSITION SKY/WX   TEMP    WIND        PRES    WAVE   SWELL
                          AIR SEA DIR/SP/G            HT/PER HT/PER
                          (F)     (DEG/KT/KT) (MB)    (FT/S) (FT/S)
VIRGINIA KEY               79 77  140/ 11/ 14 1018.9F
LAKE WORTH                 78 77  200/ 14/ 17 1020.5F
FOWEY ROCKS                80 76  160/ 13/ 14 1020.4F
SETTLEMENT POINT           79     170/ 11/ 14 1019.9F

$$